| time (UTC) | temp C | wind direction | speed KPH | gust KPH | rain 1hr cm | rain 24hr cm | rain mn cm | humidity % | barometer mb |
| 20260906040025 | 31 | 37 | 0.0 | 4.8 | 0.00 | 0.00 | 0.00 | 66 | 1012.2 |
| 20260906034513 | 31 | 8 | 0.0 | 4.8 | 0.00 | 0.00 | 0.00 | 65 | 1012.0 |
| 20260906033013 | 31 | 25 | 0.0 | 4.8 | 0.00 | 0.00 | 0.00 | 64 | 1012.0 |
| 20260906031519 | 32 | 61 | 0.0 | 6.4 | 0.00 | 0.00 | 0.00 | 63 | 1011.7 |
| 20260906030011 | 32 | 17 | 0.0 | 9.7 | 0.00 | 0.00 | 0.00 | 61 | 1011.8 |
| 20260906024510 | 32 | 94 | 0.0 | 6.4 | 0.00 | 0.00 | 0.00 | 58 | 1011.6 |
| 20260906023009 | 32 | 348 | 1.6 | 8.0 | 0.00 | 0.00 | 0.00 | 57 | 1011.4 |
| 20260906021510 | 32 | 23 | 1.6 | 6.4 | 0.00 | 0.00 | 0.00 | 55 | 1011.2 |
| 20260906020009 | 32 | 14 | 0.0 | 3.2 | 0.00 | 0.00 | 0.00 | 54 | 1011.1 |
| 20260906014511 | 32 | 121 | 0.0 | 3.2 | 0.00 | 0.00 | 0.00 | 54 | 1010.9 |
| 20260906013008 | 32 | 105 | 0.0 | 1.6 | 0.00 | 0.00 | 0.00 | 54 | 1010.8 |
| 20260906011508 | 32 | 106 | 0.0 | 1.6 | 0.00 | 0.00 | 0.00 | 55 | 1010.5 |
| 20260906010007 | 33 | 106 | 0.0 | 0.0 | 0.00 | 0.00 | 0.00 | 53 | 1010.4 |
| 20260906004506 | 34 | 106 | 0.0 | 1.6 | 0.00 | 0.00 | 0.00 | 52 | 1010.2 |
| 20260906003006 | 34 | 50 | 0.0 | 1.6 | 0.00 | 0.00 | 0.00 | 51 | 1010.3 |
| 20260906001507 | 35 | 153 | 0.0 | 1.6 | 0.00 | 0.00 | 0.00 | 49 | 1010.2 |
| 20260906000005 | 35 | 185 | 0.0 | 6.4 | 0.00 | 0.00 | 0.00 | 47 | 1010.1 |
| 20260905234506 | 35 | 32 | 0.0 | 4.8 | 0.00 | 0.00 | 0.00 | 48 | 1010.2 |
| 20260905233004 | 35 | 294 | 0.0 | 1.6 | 0.00 | 0.00 | 0.00 | 47 | 1010.2 |
| 20260905231504 | 35 | 18 | 0.0 | 3.2 | 0.00 | 0.00 | 0.00 | 46 | 1010.4 |
| 20260905230003 | 36 | 356 | 0.0 | 9.7 | 0.00 | 0.00 | 0.00 | 45 | 1010.3 |
| 20260905224503 | 36 | 311 | 3.2 | 8.0 | 0.00 | 0.00 | 0.00 | 42 | 1010.2 |
| 20260905223001 | 37 | 307 | 6.4 | 12.9 | 0.00 | 0.00 | 0.00 | 40 | 1010.0 |
| 20260905221501 | 37 | 294 | 3.2 | 9.7 | 0.00 | 0.00 | 0.00 | 40 | 1010.2 |
| 20260905220101 | 37 | 301 | 6.4 | 12.9 | 0.00 | 0.00 | 0.00 | 39 | 1010.1 |
| 20260905214607 | 37 | 300 | 6.4 | 16.1 | 0.00 | 0.00 | 0.00 | 39 | 1010.1 |
| 20260905213104 | 38 | 326 | 4.8 | 14.5 | 0.00 | 0.00 | 0.00 | 40 | 1010.1 |
| 20260905211558 | 38 | 278 | 4.8 | 11.3 | 0.00 | 0.00 | 0.00 | 39 | 1010.2 |
| 20260905210106 | 38 | 345 | 4.8 | 14.5 | 0.00 | 0.00 | 0.00 | 40 | 1010.4 |
| 20260905204554 | 37 | 299 | 4.8 | 11.3 | 0.00 | 0.00 | 0.00 | 40 | 1010.4 |
| 20260905203058 | 37 | 354 | 6.4 | 14.5 | 0.00 | 0.00 | 0.00 | 42 | 1010.5 |
| 20260905201552 | 38 | 299 | 3.2 | 17.7 | 0.00 | 0.00 | 0.00 | 39 | 1010.6 |
| 20260905194548 | 38 | 299 | 4.8 | 8.0 | 0.00 | 0.00 | 0.00 | 38 | 1011.0 |
| 20260905193046 | 38 | 36 | 1.6 | 12.9 | 0.00 | 0.00 | 0.00 | 38 | 1011.3 |
| 20260905191546 | 38 | 306 | 1.6 | 12.9 | 0.00 | 0.00 | 0.00 | 41 | 1011.3 |
| 20260905190050 | 38 | 321 | 3.2 | 8.0 | 0.00 | 0.00 | 0.00 | 39 | 1011.5 |
| 20260905184540 | 38 | 60 | 1.6 | 9.7 | 0.00 | 0.00 | 0.00 | 40 | 1011.7 |
| 20260905183038 | 37 | 323 | 1.6 | 11.3 | 0.00 | 0.00 | 0.00 | 43 | 1011.9 |
| 20260905181538 | 37 | 336 | 3.2 | 9.7 | 0.00 | 0.00 | 0.00 | 43 | 1012.0 |
| 20260905180051 | 37 | 319 | 0.0 | 12.9 | 0.00 | 0.00 | 0.00 | 46 | 1012.0 |
| 20260905174535 | 37 | 255 | 1.6 | 6.4 | 0.00 | 0.00 | 0.00 | 46 | 1012.1 |
| 20260905173033 | 36 | 318 | 0.0 | 9.7 | 0.00 | 0.00 | 0.00 | 48 | 1012.3 |
| 20260905171547 | 36 | 271 | 0.0 | 6.4 | 0.00 | 0.00 | 0.00 | 49 | 1012.4 |
| 20260905170028 | 36 | 302 | 1.6 | 9.7 | 0.00 | 0.00 | 0.00 | 49 | 1012.6 |
| 20260905164524 | 35 | 305 | 3.2 | 9.7 | 0.00 | 0.00 | 0.00 | 50 | 1012.8 |
| 20260905163020 | 35 | 295 | 4.8 | 11.3 | 0.00 | 0.00 | 0.00 | 50 | 1012.9 |
| 20260905161524 | 35 | 302 | 3.2 | 8.0 | 0.00 | 0.00 | 0.00 | 49 | 1013.0 |
| 20260905160022 | 35 | 300 | 1.6 | 8.0 | 0.00 | 0.00 | 0.00 | 52 | 1013.0 |
| 20260905154514 | 34 | 297 | 1.6 | 11.3 | 0.00 | 0.00 | 0.00 | 52 | 1013.0 |
| 20260905153013 | 34 | 318 | 3.2 | 6.4 | 0.00 | 0.00 | 0.00 | 52 | 1013.0 |
| 20260905151510 | 34 | 245 | 0.0 | 6.4 | 0.00 | 0.00 | 0.00 | 55 | 1013.0 |
| 20260905150006 | 33 | 299 | 0.0 | 4.8 | 0.00 | 0.00 | 0.00 | 57 | 1013.1 |
| 20260905144504 | 32 | 309 | 0.0 | 3.2 | 0.00 | 0.00 | 0.00 | 58 | 1013.0 |
| 20260905143003 | 32 | 222 | 0.0 | 1.6 | 0.00 | 0.00 | 0.00 | 59 | 1012.9 |
| 20260905141558 | 31 | 287 | 0.0 | 1.6 | 0.00 | 0.00 | 0.00 | 62 | 1012.9 |
| 20260905134600 | 31 | 288 | 0.0 | 4.8 | 0.00 | 0.00 | 0.00 | 63 | 1012.9 |
| 20260905133051 | 30 | 312 | 0.0 | 4.8 | 0.00 | 0.00 | 0.00 | 64 | 1012.8 |
| 20260905131548 | 30 | 225 | 0.0 | 3.2 | 0.00 | 0.00 | 0.00 | 66 | 1012.7 |
| 20260905130047 | 29 | 314 | 0.0 | 3.2 | 0.00 | 0.00 | 0.00 | 66 | 1012.6 |
| 20260905124552 | 28 | 297 | 0.0 | 1.6 | 0.00 | 0.00 | 0.00 | 67 | 1012.4 |
| 20260905123044 | 28 | 274 | 0.0 | 1.6 | 0.00 | 0.00 | 0.00 | 68 | 1012.4 |
| 20260905121547 | 28 | 242 | 0.0 | 1.6 | 0.00 | 0.00 | 0.00 | 68 | 1012.2 |
| 20260905120057 | 28 | 242 | 0.0 | 0.0 | 0.00 | 0.00 | 0.00 | 68 | 1012.1 |
| 20260905114558 | 28 | 250 | 0.0 | 1.6 | 0.00 | 0.00 | 0.00 | 68 | 1012.0 |
| 20260905113053 | 28 | 239 | 0.0 | 1.6 | 0.00 | 0.00 | 0.00 | 68 | 1011.8 |
| 20260905111627 | 28 | 146 | 0.0 | 0.0 | 0.00 | 0.00 | 0.00 | 68 | 1011.8 |
| 20260905110042 | 28 | 146 | 0.0 | 1.6 | 0.00 | 0.00 | 0.00 | 68 | 1011.7 |
| 20260905104542 | 28 | 108 | 0.0 | 1.6 | 0.00 | 0.00 | 0.00 | 68 | 1011.7 |
| 20260905103041 | 28 | 108 | 0.0 | 0.0 | 0.00 | 0.00 | 0.00 | 68 | 1011.7 |
| 20260905101543 | 28 | 108 | 0.0 | 0.0 | 0.00 | 0.00 | 0.00 | 69 | 1011.8 |
| 20260905100040 | 28 | 108 | 0.0 | 0.0 | 0.00 | 0.00 | 0.00 | 69 | 1011.8 |
| 20260905094538 | 28 | 108 | 0.0 | 0.0 | 0.00 | 0.00 | 0.00 | 68 | 1011.8 |
| 20260905093041 | 28 | 108 | 0.0 | 0.0 | 0.00 | 0.00 | 0.00 | 68 | 1011.8 |
| 20260905091536 | 28 | 108 | 0.0 | 0.0 | 0.00 | 0.00 | 0.00 | 67 | 1011.9 |
| 20260905090035 | 28 | 108 | 0.0 | 0.0 | 0.00 | 0.00 | 0.00 | 67 | 1011.7 |
| 20260905084534 | 28 | 128 | 0.0 | 0.0 | 0.00 | 0.00 | 0.00 | 67 | 1011.8 |
| 20260905083033 | 28 | 128 | 0.0 | 0.0 | 0.00 | 0.00 | 0.00 | 68 | 1011.8 |
| 20260905081531 | 28 | 128 | 0.0 | 0.0 | 0.00 | 0.00 | 0.00 | 68 | 1011.9 |
| 20260905080033 | 28 | 128 | 0.0 | 0.0 | 0.00 | 0.00 | 0.00 | 67 | 1012.1 |
| 20260905074528 | 29 | 128 | 0.0 | 1.6 | 0.00 | 0.00 | 0.00 | 66 | 1012.1 |
| 20260905073035 | 29 | 335 | 0.0 | 0.0 | 0.00 | 0.00 | 0.00 | 66 | 1012.2 |
| 20260905071526 | 29 | 283 | 0.0 | 0.0 | 0.00 | 0.00 | 0.00 | 66 | 1012.3 |
| 20260905070043 | 29 | 283 | 0.0 | 0.0 | 0.00 | 0.00 | 0.00 | 66 | 1012.2 |
| 20260905064537 | 29 | 283 | 0.0 | 0.0 | 0.00 | 0.00 | 0.00 | 66 | 1012.3 |
| 20260905063024 | 29 | 283 | 0.0 | 0.0 | 0.00 | 0.00 | 0.00 | 65 | 1012.3 |
| 20260905061521 | 29 | 283 | 0.0 | 0.0 | 0.00 | 0.00 | 0.00 | 64 | 1012.3 |
| 20260905060023 | 30 | 283 | 0.0 | 0.0 | 0.00 | 0.00 | 0.00 | 64 | 1012.4 |
| 20260905054532 | 30 | 283 | 0.0 | 0.0 | 0.00 | 0.00 | 0.00 | 63 | 1012.4 |
| 20260905053018 | 30 | 283 | 0.0 | 0.0 | 0.00 | 0.00 | 0.00 | 63 | 1012.4 |
| 20260905051527 | 30 | 283 | 0.0 | 0.0 | 0.00 | 0.00 | 0.00 | 63 | 1012.4 |
| 20260905050014 | 30 | 283 | 0.0 | 0.0 | 0.00 | 0.00 | 0.00 | 63 | 1012.3 |
| 20260905044514 | 30 | 283 | 0.0 | 0.0 | 0.00 | 0.00 | 0.00 | 62 | 1012.3 |
| 20260905043013 | 30 | 283 | 0.0 | 0.0 | 0.00 | 0.00 | 0.00 | 62 | 1012.3 |
| 20260905041513 | 30 | 283 | 0.0 | 0.0 | 0.00 | 0.00 | 0.00 | 62 | 1012.2 |